Santiago, Chile

12:06 PM -04 on May 20, 2018 (GMT -0400)
Arturo Merino Benitez International

Weather History for SCEL - February, 2018

Change the Weather History Date:

Tuesday, February 6, 2018

  Actual Average Record
Temperature  
Mean Temperature 72 °F -  
Max Temperature 85 °F 81 °F 89 °F (1997)
Min Temperature 58 °F 51 °F 51 °F (1997)
Cooling Degree Days 6    
Growing Degree Days 22 (Base 50)    
Moisture  
Dew Point 57 °F    
Average Humidity 62    
Maximum Humidity 94    
Minimum Humidity 33    
Precipitation  
Precipitation 0.00 in - - ()
Sea Level Pressure  
Sea Level Pressure 29.92 in    
Wind  
Wind Speed 8 mph ()    
Max Wind Speed 16 mph    
Max Gust Speed -    
Visibility 4.5 miles    
Events      
Averages and records for this station are not official NWS values.
T = Trace of Precipitation, MM = Missing Value Source: Averaged Metar Reports

Daily Weather History Graph

Daily Weather History Graph

Search for Another Location

Airport or City:

Astronomy

Feb. 06, 2018 Rise Set
Actual Time 7:10 AM -03 8:43 PM -03
Civil Twilight 6:44 AM -03 9:09 PM -03
Nautical Twilight 6:12 AM -03 9:41 PM -03
Astronomical Twilight 5:38 AM -03 10:14 PM -03
Moon 12:18 AM -03 (2/6) 1:22 PM -03 (2/6)
Length of Visible Light 14h 25m
Length of Day
13h 32m
Waning Gibbous, 60% of the Moon is Illuminated
Feb 6
Waning Gibbous
Feb 7
Last Quarter
Feb 15
New
Feb 23
First Quarter
Mar 1
Full

Hourly Weather History & Observations

Time (-03) Temp. Heat Index Dew Point Humidity Pressure Visibility Wind Dir Wind Speed Gust Speed Precip Events Conditions
12:00 AM 68.0 °F - 55.4 °F 64% 29.92 in - SSE 8.1 mph - N/A   Clear
1:00 AM 68.0 °F - 55.4 °F 64% 29.92 in - SSE 5.8 mph - N/A   Clear
2:00 AM 66.2 °F - 55.4 °F 68% 29.92 in - SSE 4.6 mph - N/A   Clear
3:00 AM 65 °F - 55 °F 63% 29.88 in 6 mi SSE 4.6 mph - -   Partly Cloudy
3:00 AM 64.4 °F - 55.4 °F 73% 29.89 in - SSE 4.6 mph - N/A   Clear
4:00 AM 64.4 °F - 55.4 °F 73% 29.89 in - SSE 4.6 mph - N/A   Clear
5:00 AM 60.8 °F - 55.4 °F 82% 29.89 in - South 10.4 mph - N/A   Clear
6:00 AM 59.0 °F - 55.4 °F 88% 29.92 in 5.0 mi South 8.1 mph - N/A   Unknown
7:00 AM 59.0 °F - 55.4 °F 88% 29.95 in 2.5 mi SSE 9.2 mph - N/A   Scattered Clouds
8:00 AM 59.0 °F - 57.2 °F 94% 29.95 in 3.1 mi South 6.9 mph - N/A   Partly Cloudy
9:00 AM 60 °F - 57 °F 86% 29.98 in 3 mi SSE 9.2 mph - -   Mist
9:00 AM 60.8 °F - 57.2 °F 88% 29.98 in 3.1 mi SSE 9.2 mph - N/A   Scattered Clouds
10:00 AM 62.6 °F - 57.2 °F 82% 29.98 in 4.3 mi South 4.6 mph - N/A   Scattered Clouds
11:00 AM 68.0 °F - 57.2 °F 68% 29.98 in 5.0 mi South 4.6 mph - N/A   Unknown
12:00 PM 73.4 °F - 57.2 °F 57% 29.95 in 5.0 mi South 6.9 mph - N/A   Unknown
1:00 PM 75.2 °F - 57.2 °F 53% 29.98 in - SSE 13.8 mph - N/A   Clear
2:00 PM 78.8 °F - 57.2 °F 47% 29.95 in - South 13.8 mph - N/A   Clear
3:00 PM 82 °F - 57 °F 33% 29.87 in 6 mi South 13.8 mph - -   Partly Cloudy
3:00 PM 82.4 °F 82.0 °F 57.2 °F 42% 29.95 in - South 13.8 mph - N/A   Clear
4:00 PM 84.2 °F 83.5 °F 57.2 °F 40% 29.92 in - SSE 15.0 mph - N/A   Clear
5:00 PM 84.2 °F 83.5 °F 57.2 °F 40% 29.89 in - SW 15.0 mph - N/A   Clear
6:00 PM 82.4 °F 82.0 °F 57.2 °F 42% 29.89 in - SW 16.1 mph - N/A   Clear
7:00 PM 82.4 °F 82.0 °F 57.2 °F 42% 29.89 in - SSW 16.1 mph - N/A   Clear
8:00 PM 78.8 °F - 57.2 °F 47% 29.89 in - SSW 16.1 mph - N/A   Clear
9:00 PM 76 °F - 57 °F 41% 29.85 in 6 mi SSW 13.8 mph - -   Partly Cloudy
9:00 PM 75.2 °F - 57.2 °F 53% 29.92 in - SSW 13.8 mph - N/A   Clear
10:00 PM 75.2 °F - 57.2 °F 53% 29.92 in - SE 5.8 mph - N/A   Clear
11:00 PM 69.8 °F - 55.4 °F 60% 29.92 in - SSE 10.4 mph - N/A   Clear